Wind_Speed
22 23 23 24 23 23 23 23 23 23 23 23 24 24 24 24 25 25 25 25 25 26 26 26 26 26 26 25 25 24 24 23 23 22 22 21 21 21 21 21 21 21 21
24 25 25 26 26 26 26 26 25 25 26 26 26 26 26 27 27 27 27 27 27 27 27 27 27 27 27 27 27 27 26 26 25 25 24 23 23 22 22 22 22 22 22
26 26 27 27 28 28 28 28 28 28 28 29 28 28 29 28 28 28 28 29 29 28 28 29 29 28 28 29 29 28 28 28 28 27 26 25 24 24 24 24 24 24 24
28 28 28 29 29 30 30 30 31 31 31 31 31 31 30 30 30 30 29 29 30 30 30 30 30 30 30 30 30 30 30 30 29 29 28 27 26 25 25 26 25 25 24
29 30 30 30 31 31 32 32 32 33 33 33 33 33 32 31 31 31 30 30 31 31 31 31 31 31 30 30 30 30 30 30 30 30 29 29 28 27 26 26 26 25 25
30 31 31 31 32 32 33 33 33 34 34 34 34 34 33 33 33 33 32 32 32 31 31 31 30 31 30 30 30 30 31 30 30 30 29 28 28 27 27 27 26 26 26
31 32 32 32 33 33 34 34 34 34 35 35 34 34 34 34 35 35 34 33 32 31 31 31 30 30 30 30 30 31 30 30 30 30 30 29 28 28 28 28 27 27 26
32 32 33 33 34 35 35 35 36 35 36 36 35 36 36 35 36 36 35 34 33 31 31 31 31 31 31 31 30 31 31 30 30 30 31 31 30 29 28 28 28 28 28
33 33 33 34 35 35 36 36 37 36 36 36 36 36 37 36 35 35 34 34 34 33 33 33 33 33 32 32 32 32 32 31 30 30 31 31 31 30 29 29 29 28 28
34 34 34 35 35 36 37 37 37 37 37 37 37 37 37 36 35 35 34 34 34 33 34 34 34 33 33 33 33 32 32 32 32 32 32 31 30 30 29 29 29 29 29
34 35 35 35 36 36 37 37 38 38 38 38 37 37 37 36 35 35 35 35 35 34 34 35 34 35 34 34 34 34 33 33 33 33 33 32 31 30 30 29 29 29 29
34 35 35 35 36 37 38 38 38 38 38 38 38 38 37 35 35 35 36 36 36 36 36 36 36 36 35 35 36 35 34 34 34 34 33 33 32 31 31 30 30 30 30
34 35 34 35 35 36 36 37 38 38 38 38 38 38 37 36 36 35 35 36 36 36 36 37 36 36 36 36 35 35 35 35 34 34 33 33 32 32 32 31 31 31 31
33 33 34 34 35 35 36 36 36 36 36 37 38 37 36 35 35 35 35 35 36 37 37 37 36 36 36 36 36 35 35 35 34 34 34 33 33 32 32 32 32 32 32
34 34 34 34 34 35 35 35 35 35 36 36 36 35 35 34 34 35 35 35 36 36 36 36 36 36 36 36 35 34 34 34 34 34 33 34 33 33 33 33 32 32 32
35 35 35 34 35 36 36 35 34 34 33 33 33 34 34 33 33 34 35 36 36 36 35 36 36 36 35 34 33 33 34 34 34 34 33 33 33 33 33 32 32 32 32
36 36 35 35 36 35 35 34 32 32 31 31 31 32 33 33 33 34 35 34 35 34 34 34 34 34 33 33 33 33 33 33 33 33 33 32 33 33 33 33 32 32 31
36 35 34 34 35 35 34 33 32 31 30 30 30 31 32 33 33 33 33 33 33 34 34 34 34 34 33 33 32 32 32 32 32 32 32 32 32 32 33 33 32 32 32
34 34 34 34 34 33 33 32 31 30 30 30 31 31 32 32 33 33 33 32 32 33 34 34 33 33 33 33 33 32 32 32 32 32 31 32 31 32 32 32 32 32 32
34 34 34 33 32 32 31 31 31 31 31 31 31 32 32 32 32 32 32 32 31 31 31 32 32 32 31 32 32 32 32 32 31 31 31 31 31 31 31 32 32 32 32
34 34 33 32 31 31 31 31 31 32 31 31 31 31 32 32 32 31 31 30 30 30 30 31 31 30 30 30 30 30 31 31 31 31 31 31 31 30 31 31 31 31 32
32 32 31 30 30 30 31 32 32 32 32 31 30 31 31 31 31 30 29 29 29 29 29 29 29 29 29 29 29 29 30 31 31 31 31 31 31 31 31 31 31 32 32
30 30 29 29 29 30 30 30 31 31 30 30 30 30 30 30 30 29 28 28 29 29 29 29 28 28 28 28 28 28 28 29 30 30 30 31 31 32 32 32 32 32 32
30 29 28 28 28 28 29 28 29 29 29 30 30 29 29 28 28 28 28 28 29 29 29 29 29 29 28 27 27 28 28 29 29 30 30 30 31 32 32 32 32 32 32
30 30 29 28 27 27 27 27 27 27 28 28 28 28 28 28 28 27 27 27 28 28 28 28 29 28 28 28 28 28 28 28 29 30 30 31 31 32 32 33 33 33 32
30 29 28 28 27 26 26 26 26 26 27 27 27 27 27 27 27 27 27 27 27 27 27 27 27 27 27 28 28 28 29 29 29 29 30 30 30 31 31 32 32 32 31
Wind_Direction
269 268 267 268 269 271 273 274 274 275 276 277 279 280 281 281 282 282 281 279 278 277 276 275 274 273 272 271 270 270 271 272 273 274 274 274 273 273 272 271 269 269 270
271 270 269 268 270 271 272 272 273 274 276 277 279 281 282 282 283 283 282 280 278 277 277 276 275 274 273 272 270 269 270 270 272 272 272 273 272 273 273 273 270 270 272
272 271 270 270 271 270 270 270 272 274 276 277 279 281 282 282 282 282 281 280 279 277 276 276 275 274 274 272 271 270 269 269 270 271 270 270 270 271 272 273 272 270 270
273 271 270 271 272 272 271 271 272 273 275 277 278 280 280 280 280 280 279 279 279 277 276 275 274 274 274 273 271 270 269 269 268 269 269 268 268 269 271 272 272 270 269
274 274 273 272 273 273 273 273 273 274 275 276 277 278 279 279 280 280 278 277 277 277 275 274 274 273 272 271 270 270 269 268 268 268 267 267 266 267 268 269 270 269 267
275 275 275 274 274 274 275 275 275 277 277 278 278 278 278 278 279 279 277 277 277 276 275 274 273 271 269 269 268 269 268 268 266 266 266 265 265 266 266 267 267 267 267
278 277 275 275 275 276 275 276 277 277 278 278 279 278 278 278 279 278 277 276 275 275 274 273 272 271 269 268 266 267 268 268 266 264 263 264 266 266 266 265 265 266 266
279 278 276 276 276 277 276 277 277 278 279 279 278 278 278 277 278 277 276 275 274 273 273 273 272 270 268 266 265 266 266 266 265 263 262 264 264 266 265 264 265 265 265
280 279 278 278 278 277 277 277 277 277 277 279 279 279 278 277 276 276 274 274 273 273 273 273 273 270 268 266 266 266 266 265 265 264 263 263 265 265 265 265 264 263 263
281 280 280 280 279 279 279 278 278 277 278 278 279 279 278 275 274 273 272 273 273 273 273 274 273 272 270 267 266 267 266 265 265 265 264 263 262 263 264 264 263 262 261
282 282 282 281 280 280 280 279 279 278 277 277 279 278 277 275 273 273 272 272 272 271 271 272 273 272 269 266 265 265 265 264 265 264 264 262 261 262 263 264 263 263 262
283 284 284 283 282 281 280 280 279 278 277 276 277 277 275 273 272 273 273 273 273 272 272 272 272 270 269 266 264 264 264 263 263 263 261 261 261 262 261 262 262 262 261
285 285 285 284 283 282 282 280 280 280 278 276 275 275 274 271 271 273 272 273 273 272 272 272 270 269 267 265 264 265 265 264 263 261 260 260 261 260 261 261 261 260 261
288 287 286 286 285 284 283 283 282 280 278 277 276 275 273 272 272 273 272 273 273 272 272 271 270 269 267 266 264 265 264 263 261 260 260 260 260 260 259 261 261 261 262
288 288 287 286 285 284 284 284 283 282 279 277 276 275 274 273 273 273 274 273 273 272 271 269 269 268 266 265 263 262 262 261 259 260 260 259 258 258 259 260 261 262 262
288 288 287 285 284 284 285 284 283 282 280 278 276 274 275 274 273 274 273 273 273 272 271 270 269 267 264 263 262 261 260 260 260 259 259 258 257 257 257 257 259 260 262
289 289 288 286 285 285 284 282 282 281 279 278 277 276 276 276 275 274 274 272 271 271 270 269 267 265 263 263 262 262 261 259 258 257 257 257 258 257 258 259 260 260 263
289 290 288 286 285 284 283 282 281 280 279 278 278 278 278 278 278 277 275 273 270 269 269 268 266 265 264 264 262 261 260 258 257 257 257 258 258 258 258 259 260 260 262
290 289 288 286 285 284 283 280 279 278 279 279 279 278 278 278 278 277 276 275 273 271 269 267 266 267 265 262 259 258 256 256 257 258 257 257 257 258 259 259 260 259 259
289 288 287 285 283 281 280 278 277 277 278 278 278 278 278 278 278 277 276 276 275 273 271 268 267 266 264 260 258 257 256 255 256 256 256 256 257 257 258 258 258 258 260
289 287 287 285 283 279 276 277 277 278 279 279 279 279 279 278 278 278 277 276 274 272 270 269 267 265 261 259 257 255 255 256 256 256 256 256 256 257 257 257 257 259 260
291 290 288 286 284 281 278 277 277 278 279 281 281 281 280 279 278 277 276 275 272 271 270 269 266 264 260 259 257 256 255 256 257 257 257 257 256 256 256 257 259 260 261
294 292 290 288 284 282 281 279 278 279 280 280 282 283 282 280 278 277 276 275 273 270 267 266 266 263 262 261 259 258 257 256 255 255 257 257 256 256 257 259 260 260 260
292 290 289 289 286 284 282 281 280 280 281 281 282 282 281 280 278 277 276 274 271 268 265 265 264 264 263 261 260 260 258 257 256 256 256 257 257 258 258 258 258 258 259
290 289 288 288 287 285 283 281 281 281 282 282 282 281 281 279 277 276 277 275 272 269 266 264 264 263 263 262 261 259 259 259 259 259 258 258 257 257 257 258 259 259 260
289 288 287 285 284 284 283 282 282 282 283 282 280 280 279 279 277 276 277 277 276 273 269 266 263 262 262 262 261 260 259 260 260 259 258 258 258 258 258 259 259 259 259
Height
5809 5809 5809 5809 5809 5808 5808 5808 5807 5807 5806 5805 5804 5803 5802 5800 5799 5797 5795 5794 5793 5792 5791 5791 5790 5790 5789 5789 5789 5788 5788 5788 5787 5787 5786 5786 5785 5784 5784 5784 5784 5784 5784
5802 5802 5801 5801 5801 5801 5801 5801 5800 5800 5799 5798 5796 5795 5794 5792 5791 5790 5788 5787 5785 5784 5784 5783 5782 5781 5781 5781 5781 5781 5780 5780 5780 5780 5780 5779 5779 5778 5778 5778 5778 5777 5777
5794 5794 5794 5793 5793 5793 5793 5793 5792 5792 5790 5789 5788 5787 5786 5784 5783 5781 5780 5779 5777 5776 5775 5774 5774 5773 5773 5773 5772 5772 5772 5772 5772 5772 5773 5772 5772 5772 5772 5771 5771 5771 5771
5786 5786 5785 5785 5785 5784 5784 5784 5783 5783 5782 5780 5779 5778 5777 5775 5774 5773 5771 5770 5769 5767 5766 5765 5765 5764 5764 5764 5763 5763 5764 5764 5764 5764 5764 5765 5765 5765 5765 5764 5764 5764 5764
5777 5777 5776 5776 5775 5775 5774 5774 5774 5773 5772 5771 5770 5769 5767 5766 5765 5763 5762 5761 5759 5758 5757 5756 5755 5755 5754 5754 5754 5754 5754 5754 5755 5755 5756 5756 5757 5757 5757 5757 5756 5756 5756
5768 5768 5767 5766 5766 5765 5765 5764 5763 5762 5761 5760 5759 5758 5757 5756 5755 5753 5752 5750 5749 5748 5747 5746 5745 5745 5745 5745 5745 5745 5745 5745 5746 5746 5747 5747 5748 5748 5749 5748 5748 5748 5749
5759 5758 5757 5756 5756 5755 5754 5754 5753 5752 5751 5750 5748 5748 5747 5745 5744 5743 5741 5740 5739 5738 5737 5736 5736 5735 5735 5736 5736 5736 5736 5736 5737 5737 5738 5738 5739 5740 5740 5740 5740 5740 5741
5750 5748 5747 5746 5746 5745 5743 5743 5742 5741 5740 5739 5738 5737 5736 5734 5733 5731 5730 5729 5728 5728 5727 5726 5726 5725 5725 5726 5726 5726 5726 5727 5727 5728 5729 5730 5730 5730 5731 5731 5731 5732 5732
5740 5738 5737 5736 5735 5734 5732 5731 5731 5730 5729 5728 5726 5725 5724 5723 5721 5720 5719 5719 5718 5718 5717 5716 5715 5715 5715 5715 5716 5716 5717 5717 5718 5718 5719 5720 5721 5721 5722 5722 5723 5724 5724
5730 5728 5727 5725 5724 5723 5721 5720 5719 5718 5717 5716 5715 5713 5712 5711 5710 5709 5708 5708 5708 5707 5707 5706 5705 5705 5705 5705 5705 5706 5706 5707 5708 5709 5709 5710 5711 5712 5713 5713 5714 5715 5716
5720 5718 5716 5714 5713 5711 5710 5709 5707 5707 5706 5705 5703 5702 5700 5699 5699 5698 5697 5696 5696 5696 5695 5695 5694 5694 5694 5694 5694 5695 5696 5697 5697 5698 5699 5700 5701 5703 5704 5704 5705 5706 5707
5709 5707 5705 5704 5702 5700 5698 5697 5695 5694 5693 5692 5691 5690 5689 5688 5687 5686 5685 5685 5684 5684 5684 5683 5683 5682 5682 5682 5683 5684 5684 5686 5687 5688 5689 5690 5691 5693 5694 5695 5695 5696 5697
5699 5697 5695 5693 5691 5689 5687 5685 5683 5682 5680 5679 5679 5678 5677 5676 5676 5675 5674 5673 5672 5672 5672 5671 5671 5670 5670 5671 5672 5672 5673 5674 5676 5677 5679 5680 5681 5682 5683 5685 5685 5686 5687
5689 5686 5684 5682 5680 5678 5675 5673 5671 5670 5668 5667 5666 5665 5665 5664 5664 5663 5662 5661 5661 5660 5659 5659 5659 5658 5658 5659 5660 5661 5662 5663 5665 5666 5668 5669 5670 5672 5673 5674 5675 5676 5677
5678 5676 5673 5671 5669 5667 5665 5662 5660 5658 5656 5655 5654 5653 5653 5653 5652 5651 5650 5649 5648 5648 5647 5646 5646 5646 5647 5647 5648 5649 5651 5652 5654 5655 5656 5658 5660 5661 5663 5664 5665 5666 5667
5667 5665 5662 5660 5658 5655 5653 5651 5649 5648 5646 5644 5643 5642 5641 5641 5640 5639 5638 5638 5637 5636 5635 5634 5634 5635 5635 5636 5637 5638 5640 5641 5643 5644 5646 5647 5649 5650 5652 5653 5655 5656 5657
5656 5654 5651 5649 5646 5644 5642 5640 5638 5637 5636 5634 5633 5632 5631 5630 5629 5628 5627 5626 5625 5624 5623 5623 5623 5624 5624 5625 5626 5627 5629 5630 5632 5634 5635 5637 5638 5640 5641 5643 5644 5645 5646
5644 5642 5639 5637 5635 5633 5631 5629 5628 5627 5626 5625 5624 5622 5621 5619 5618 5617 5616 5614 5613 5613 5612 5612 5613 5613 5614 5614 5615 5616 5618 5619 5621 5623 5625 5626 5628 5629 5631 5632 5633 5635 5636
5633 5631 5628 5626 5623 5621 5620 5619 5617 5617 5616 5615 5614 5612 5610 5609 5607 5606 5605 5603 5602 5602 5602 5602 5602 5602 5603 5603 5605 5606 5608 5609 5611 5613 5614 5616 5617 5619 5620 5621 5623 5624 5625
5622 5619 5617 5614 5612 5611 5609 5608 5607 5606 5605 5604 5603 5602 5600 5599 5597 5596 5594 5593 5592 5592 5591 5591 5592 5592 5592 5593 5594 5595 5597 5599 5601 5603 5604 5606 5607 5609 5610 5611 5612 5614 5615
5611 5608 5606 5603 5602 5600 5599 5598 5597 5596 5595 5593 5592 5591 5590 5588 5587 5585 5584 5583 5583 5582 5582 5582 5581 5582 5582 5583 5584 5585 5587 5589 5591 5593 5594 5596 5597 5598 5599 5601 5602 5603 5604
5600 5598 5595 5593 5591 5590 5589 5588 5586 5585 5584 5583 5582 5581 5579 5578 5576 5575 5574 5573 5573 5573 5572 5572 5572 5572 5572 5574 5575 5576 5578 5580 5581 5582 5584 5586 5587 5588 5589 5590 5592 5593 5594
5590 5588 5585 5583 5581 5580 5579 5577 5576 5575 5574 5573 5572 5571 5569 5568 5567 5565 5564 5564 5563 5563 5563 5563 5563 5563 5563 5564 5566 5567 5568 5570 5571 5573 5574 5575 5577 5578 5579 5580 5581 5582 5584
5581 5578 5576 5574 5572 5570 5569 5568 5567 5566 5564 5563 5562 5561 5560 5558 5557 5556 5555 5554 5554 5553 5553 5553 5554 5554 5555 5556 5557 5558 5559 5560 5562 5563 5564 5565 5567 5568 5569 5570 5571 5572 5573
5571 5569 5567 5565 5563 5561 5560 5559 5557 5556 5555 5554 5553 5551 5550 5549 5548 5547 5546 5545 5544 5543 5543 5543 5544 5545 5545 5546 5547 5549 5549 5550 5552 5553 5554 5555 5556 5557 5558 5559 5560 5561 5562
5562 5560 5558 5556 5554 5553 5551 5550 5548 5547 5546 5544 5543 5542 5541 5540 5538 5537 5536 5535 5534 5534 5533 5533 5534 5535 5536 5537 5538 5539 5540 5541 5542 5543 5544 5545 5546 5547 5548 5549 5550 5551 5552